Regional Weather Roundup
Issued by NWS State College, PA

Home | Current Version | Previous Version | Text Only | Print | Product List | Glossary Off
Versions: 1 2 3 4 5 6 7 8 9 10 11 12 13 14 15 16 17 18 19 20 21 22 23 24 25 26 27 28 29 30 31 32 33 34 35 36 37 38 39 40 41 42 43 44 45 46 47 48 49 50

000
ASUS41 KCTP 251110
RWRCTP

REGIONAL WEATHER ROUNDUP
NATIONAL WEATHER SERVICE STATE COLLEGE PA
700 AM EDT SAT OCT 25 2014

Note: "fair" indicates few or no clouds below 12,000 feet with no
significant weather and/or obstructions to visibility.

* = STATION THAT DOES NOT REPORT PRECIPITATION /E.G. RAIN...SNOW...ETC/
    THUNDER OR FOG.

PAZ002>004-007>009-013>016-020>023-029>032-251200-
WESTERN PENNSYLVANIA

CITY           SKY/WX    TMP DP  RH WIND       PRES   REMARKS
ERIE           CLOUDY    53  43  68 S8        29.89F
MEADVILLE        N/A     49  40  71 S7        29.91F
FRANKLIN*      CLOUDY    46  37  71 SW7       29.94F
NEW CASTLE       N/A     45  40  82 CALM      29.96R
BEAVER COUNTY  CLOUDY    46  39  76 SW3       29.96
BUTLER*        CLOUDY    46  37  71 SW6       29.97S
PITTSBURGH INT CLOUDY    48  39  71 W5        29.96S
PITTSBURGH     MOCLDY    48  37  65 SW9       29.96R
INDIANA*       CLOUDY    46  41  81 CALM      29.99R
LATROBE        MOCLDY    48  43  81 SW9       29.97S
WASHINGTON CO* CLOUDY    41  37  87 SW5       29.99R
$$

PAZ004>006-010>012-017>019-024>028-033>037-041-042-045-046-049>053-251200-
CENTRAL PENNSYLVANIA

CITY           SKY/WX    TMP DP  RH WIND       PRES   REMARKS
BRADFORD       CLOUDY    47  39  74 SW5       29.90S
DUBOIS         CLOUDY    44  38  79 SW7       29.92S
CLEARFIELD     CLOUDY    43  38  82 SW6       29.94R
JOHNSTOWN      CLEAR     48  36  63 W12       29.94S
ALTOONA        PTCLDY    45  38  76 CALM      29.95S
STATE COLLEGE  PTCLDY    45  37  76 SW5       29.93S
WILLIAMSPORT   CLOUDY    42  35  76 CALM      29.92S
SELINSGROVE    PTCLDY    38  36  92 CALM      29.93S
FT INDIANTOWN  CLEAR     51  41  68 SW2       29.92S
CAPITAL CITY   CLEAR     45  38  76 CALM      29.93S
HARRISBURG     PTCLDY    44  40  85 CALM      29.92S
YORK           CLEAR     38  36  92 CALM      29.94R
$$

PAZ038>040-043-044-047-048-054-055-060>062-067>071-251200-
EASTERN PENNSYLVANIA

CITY           SKY/WX    TMP DP  RH WIND       PRES   REMARKS
SCRANTON       MOCLDY    39  32  76 CALM      29.90R
MOUNT POCONO   CLEAR     42  30  62 NW7       29.87R
ALLENTOWN      CLEAR     41  32  70 CALM      29.90S
QUAKERTOWN*    SUNNY     36  32  87 CALM      29.91R
READING        CLEAR     43  37  79 CALM      29.91R
LANCASTER      CLEAR     44  37  76 W6        29.92S
COATESVILLE    SUNNY     45  39  81 W8        29.92R
POTTSTOWN      CLEAR     40  35  83 CALM      29.92S
BLUE BELL      CLEAR     41  37  87 CALM      29.90S
DOYLESTOWN     CLEAR     40  33  76 CALM      29.90R
WILLOW GROVE   NOT AVBL
NORTH PHILA    CLEAR     43  35  73 CALM      29.92S
PHILADELPHIA   PTCLDY    49  36  61 W6        29.91F
$$



USA.gov is the U.S. government's official web portal to all federal, state and local government web resources and services.